TimeCDT,TemperatureF,Dew PointF,Humidity,Sea Level PressureIn,VisibilityMPH,Wind Direction,Wind SpeedMPH,Gust SpeedMPH,PrecipitationIn,Events,Conditions,WindDirDegrees,DateUTC
12:55 AM,28.0,18.0,66,30.25,10.0,North,6.9,-,N/A,,Clear,350,2013-03-20 05:55:00
1:55 AM,27.0,18.0,69,30.25,10.0,NW,8.1,-,N/A,,Clear,320,2013-03-20 06:55:00
2:55 AM,27.0,18.0,69,30.26,10.0,NW,8.1,-,N/A,,Clear,310,2013-03-20 07:55:00
3:55 AM,26.1,19.0,75,30.25,10.0,NNW,12.7,21.9,N/A,,Clear,330,2013-03-20 08:55:00
4:55 AM,25.0,16.0,69,30.27,10.0,NNW,10.4,-,N/A,,Mostly Cloudy,340,2013-03-20 09:55:00
5:10 AM,24.8,17.6,74,30.24,10.0,NNW,12.7,19.6,N/A,,Mostly Cloudy,340,2013-03-20 10:10:00
5:55 AM,21.9,14.0,72,30.30,10.0,NNW,12.7,-,N/A,,Mostly Cloudy,340,2013-03-20 10:55:00
6:55 AM,21.0,14.0,74,30.31,5.0,NNW,9.2,18.4,0.00,Snow,Light Snow,330,2013-03-20 11:55:00
7:33 AM,21.2,15.8,80,30.28,8.0,NW,8.1,-,0.00,,Overcast,320,2013-03-20 12:33:00
7:40 AM,21.2,14.0,74,30.28,10.0,NW,16.1,23.0,0.00,,Overcast,310,2013-03-20 12:40:00
7:55 AM,21.0,12.9,71,30.34,6.0,NW,12.7,21.9,0.00,Snow,Light Snow,320,2013-03-20 12:55:00
8:24 AM,21.2,10.4,63,30.29,9.0,NNW,10.4,-,0.00,,Overcast,330,2013-03-20 13:24:00
8:42 AM,21.2,10.4,63,30.29,5.0,NNW,17.3,25.3,0.00,Snow,Light Snow,330,2013-03-20 13:42:00
8:55 AM,21.9,10.0,60,30.35,9.0,NW,15.0,26.5,0.00,Snow,Light Snow,320,2013-03-20 13:55:00
9:08 AM,21.2,8.6,58,30.30,10.0,NNW,12.7,25.3,N/A,,Scattered Clouds,330,2013-03-20 14:08:00
9:55 AM,21.9,7.0,53,30.36,10.0,NNW,19.6,25.3,N/A,,Mostly Cloudy,330,2013-03-20 14:55:00
10:55 AM,24.1,8.1,51,30.36,10.0,NNW,13.8,-,N/A,,Partly Cloudy,340,2013-03-20 15:55:00
11:55 AM,25.0,6.1,45,30.35,10.0,NW,11.5,26.5,N/A,,Partly Cloudy,320,2013-03-20 16:55:00
12:55 PM,26.1,5.0,41,30.33,10.0,NW,11.5,24.2,N/A,,Clear,320,2013-03-20 17:55:00
1:55 PM,28.9,6.1,38,30.30,10.0,NW,11.5,23.0,N/A,,Clear,310,2013-03-20 18:55:00
2:55 PM,30.0,6.1,36,30.27,10.0,West,13.8,-,N/A,,Partly Cloudy,280,2013-03-20 19:55:00
3:55 PM,30.9,6.1,35,30.24,10.0,WNW,16.1,21.9,N/A,,Clear,300,2013-03-20 20:55:00
4:55 PM,30.9,6.1,35,30.22,10.0,WNW,15.0,23.0,N/A,,Clear,300,2013-03-20 21:55:00
5:55 PM,30.9,5.0,33,30.21,10.0,WNW,11.5,21.9,N/A,,Clear,300,2013-03-20 22:55:00
6:55 PM,28.9,7.0,40,30.21,10.0,NW,15.0,-,N/A,,Clear,310,2013-03-20 23:55:00
7:55 PM,26.1,6.1,43,30.20,10.0,NW,8.1,-,N/A,,Clear,310,2013-03-21 00:55:00
8:55 PM,23.0,7.0,50,30.19,10.0,NNW,5.8,-,N/A,,Clear,330,2013-03-21 01:55:00
9:55 PM,21.0,9.0,60,30.19,10.0,North,6.9,-,N/A,,Clear,350,2013-03-21 02:55:00
10:55 PM,21.0,9.0,60,30.19,10.0,NW,3.5,-,N/A,,Clear,320,2013-03-21 03:55:00
11:55 PM,19.0,9.0,65,30.19,10.0,NW,4.6,-,N/A,,Clear,320,2013-03-21 04:55:00